QPF
0.06 0.05 0.06 0.08 0.10 0.10 0.09 0.08 0.07 0.07 0.08 0.10 0.11 0.11 0.09 0.08 0.10 0.14 0.13 0.11 0.09 0.08 0.05 0.03 0.03 0.04 0.03 0.02 0.01 0.01 0.01 0.01 0.01 0.01 0.01 0.01 0.02 0.03 0.03 0.03 0.02 0.01 0.01
0.05 0.07 0.08 0.08 0.08 0.08 0.09 0.09 0.08 0.06 0.06 0.06 0.10 0.12 0.11 0.10 0.09 0.10 0.14 0.13 0.11 0.09 0.07 0.05 0.04 0.03 0.03 0.02 0.01 0.01 0.01 0.01 0.01 0.01 0.01 0.01 0.01 0.01 0.01 0.01 0.01 0.01 0.01
0.03 0.04 0.07 0.09 0.08 0.08 0.09 0.09 0.09 0.07 0.06 0.05 0.08 0.12 0.15 0.14 0.11 0.10 0.11 0.15 0.13 0.09 0.07 0.06 0.05 0.04 0.03 0.02 0.01 0.01 0.01 0.01 0.01 0.01 0.02 0.02 0.02 0.01 0.01 0.01 0.01 0.00 0.00
0.04 0.04 0.06 0.10 0.11 0.09 0.09 0.10 0.10 0.09 0.08 0.07 0.05 0.06 0.09 0.15 0.16 0.12 0.09 0.11 0.17 0.17 0.12 0.10 0.08 0.06 0.05 0.03 0.02 0.01 0.01 0.01 0.02 0.02 0.02 0.03 0.03 0.03 0.02 0.01 0.01 0.01 0.00
0.04 0.04 0.05 0.10 0.14 0.12 0.10 0.11 0.11 0.10 0.09 0.08 0.07 0.05 0.05 0.08 0.14 0.17 0.14 0.10 0.10 0.15 0.19 0.16 0.12 0.10 0.08 0.05 0.03 0.02 0.01 0.01 0.02 0.03 0.03 0.03 0.03 0.03 0.03 0.02 0.01 0.01 0.01
0.03 0.04 0.06 0.10 0.11 0.11 0.11 0.11 0.12 0.11 0.10 0.10 0.08 0.07 0.05 0.05 0.06 0.10 0.15 0.14 0.10 0.09 0.11 0.16 0.17 0.14 0.13 0.11 0.09 0.06 0.04 0.03 0.03 0.03 0.03 0.03 0.03 0.03 0.04 0.03 0.02 0.02 0.02
0.03 0.03 0.05 0.07 0.08 0.08 0.10 0.10 0.12 0.13 0.12 0.15 0.10 0.07 0.06 0.05 0.05 0.05 0.08 0.10 0.10 0.09 0.08 0.08 0.12 0.13 0.11 0.10 0.10 0.08 0.07 0.06 0.05 0.04 0.04 0.03 0.03 0.04 0.04 0.05 0.04 0.03 0.03
0.03 0.03 0.04 0.04 0.04 0.06 0.07 0.08 0.10 0.13 0.13 0.14 0.14 0.08 0.06 0.06 0.05 0.05 0.05 0.06 0.07 0.08 0.08 0.07 0.07 0.06 0.05 0.06 0.07 0.08 0.08 0.09 0.09 0.07 0.05 0.04 0.04 0.05 0.06 0.05 0.05 0.05 0.04
0.04 0.03 0.03 0.03 0.03 0.04 0.06 0.06 0.07 0.09 0.11 0.13 0.15 0.09 0.06 0.06 0.06 0.05 0.06 0.06 0.06 0.05 0.06 0.06 0.06 0.05 0.05 0.04 0.05 0.05 0.06 0.07 0.09 0.07 0.05 0.04 0.03 0.04 0.05 0.06 0.06 0.05 0.04
0.04 0.03 0.03 0.02 0.03 0.04 0.05 0.05 0.06 0.07 0.08 0.10 0.14 0.12 0.08 0.07 0.07 0.06 0.05 0.05 0.06 0.06 0.05 0.05 0.05 0.05 0.05 0.05 0.06 0.05 0.04 0.04 0.04 0.03 0.03 0.02 0.02 0.02 0.02 0.03 0.04 0.04 0.04
0.03 0.03 0.03 0.02 0.03 0.05 0.06 0.06 0.06 0.08 0.09 0.12 0.12 0.13 0.10 0.06 0.05 0.06 0.06 0.05 0.04 0.03 0.03 0.04 0.04 0.04 0.04 0.04 0.05 0.05 0.05 0.04 0.04 0.03 0.02 0.02 0.01 0.01 0.01 0.01 0.03 0.03 0.03
0.03 0.04 0.04 0.04 0.05 0.06 0.07 0.07 0.07 0.08 0.08 0.10 0.12 0.12 0.11 0.09 0.06 0.04 0.04 0.04 0.05 0.05 0.04 0.04 0.03 0.03 0.04 0.04 0.04 0.04 0.04 0.03 0.03 0.03 0.02 0.02 0.01 0.01 0.01 0.02 0.03 0.04 0.03
0.02 0.03 0.05 0.05 0.06 0.06 0.07 0.07 0.07 0.08 0.07 0.07 0.09 0.11 0.11 0.09 0.07 0.06 0.05 0.04 0.04 0.03 0.03 0.03 0.03 0.03 0.02 0.02 0.02 0.03 0.03 0.03 0.03 0.02 0.02 0.02 0.02 0.02 0.02 0.02 0.03 0.03 0.04
0.02 0.03 0.04 0.05 0.06 0.07 0.08 0.07 0.07 0.08 0.08 0.08 0.09 0.09 0.10 0.10 0.08 0.07 0.06 0.05 0.04 0.03 0.03 0.03 0.03 0.03 0.03 0.02 0.02 0.02 0.03 0.02 0.02 0.02 0.02 0.02 0.02 0.02 0.02 0.03 0.02 0.03 0.03
0.03 0.04 0.04 0.05 0.06 0.08 0.09 0.08 0.08 0.08 0.08 0.08 0.09 0.08 0.08 0.08 0.08 0.07 0.06 0.05 0.05 0.04 0.04 0.04 0.04 0.03 0.03 0.03 0.03 0.02 0.02 0.02 0.02 0.02 0.02 0.02 0.02 0.02 0.02 0.03 0.02 0.02 0.03
0.03 0.04 0.05 0.05 0.06 0.07 0.09 0.08 0.07 0.08 0.08 0.08 0.08 0.08 0.07 0.06 0.05 0.05 0.05 0.05 0.04 0.03 0.03 0.04 0.04 0.04 0.04 0.04 0.03 0.03 0.03 0.03 0.02 0.01 0.01 0.01 0.02 0.02 0.02 0.02 0.02 0.03 0.04
0.03 0.03 0.04 0.05 0.06 0.07 0.08 0.08 0.06 0.06 0.07 0.06 0.05 0.06 0.08 0.05 0.04 0.04 0.03 0.03 0.03 0.02 0.02 0.03 0.03 0.04 0.04 0.05 0.05 0.05 0.04 0.04 0.05 0.04 0.04 0.03 0.02 0.02 0.02 0.02 0.03 0.03 0.04
0.04 0.04 0.04 0.04 0.05 0.06 0.08 0.08 0.07 0.06 0.06 0.06 0.04 0.04 0.06 0.05 0.04 0.03 0.02 0.02 0.02 0.02 0.02 0.02 0.03 0.03 0.04 0.04 0.05 0.05 0.05 0.05 0.05 0.06 0.07 0.07 0.06 0.05 0.04 0.04 0.05 0.05 0.04
0.04 0.04 0.04 0.04 0.05 0.05 0.07 0.07 0.08 0.07 0.06 0.06 0.05 0.04 0.04 0.04 0.03 0.03 0.02 0.02 0.01 0.01 0.01 0.02 0.03 0.03 0.04 0.04 0.04 0.03 0.03 0.03 0.05 0.06 0.07 0.07 0.06 0.06 0.06 0.06 0.06 0.06 0.06
0.04 0.04 0.05 0.05 0.05 0.05 0.06 0.07 0.07 0.06 0.05 0.05 0.04 0.04 0.04 0.04 0.03 0.03 0.03 0.02 0.01 0.02 0.02 0.02 0.02 0.03 0.03 0.03 0.03 0.03 0.03 0.03 0.03 0.04 0.05 0.05 0.05 0.05 0.06 0.05 0.05 0.05 0.05
0.04 0.04 0.05 0.06 0.05 0.06 0.07 0.08 0.08 0.06 0.05 0.04 0.04 0.04 0.05 0.05 0.04 0.03 0.04 0.03 0.02 0.02 0.02 0.02 0.02 0.02 0.02 0.02 0.03 0.04 0.03 0.03 0.03 0.03 0.03 0.03 0.03 0.04 0.04 0.03 0.02 0.04 0.04
0.05 0.05 0.06 0.06 0.06 0.06 0.07 0.08 0.09 0.06 0.05 0.04 0.04 0.04 0.05 0.05 0.04 0.04 0.04 0.03 0.02 0.02 0.02 0.02 0.02 0.02 0.02 0.02 0.03 0.03 0.04 0.04 0.03 0.02 0.02 0.02 0.03 0.03 0.03 0.02 0.02 0.03 0.03
0.04 0.05 0.06 0.06 0.06 0.06 0.07 0.08 0.09 0.06 0.04 0.04 0.03 0.03 0.04 0.05 0.04 0.03 0.03 0.03 0.03 0.02 0.02 0.02 0.02 0.02 0.02 0.02 0.02 0.02 0.03 0.04 0.03 0.03 0.03 0.03 0.03 0.03 0.02 0.02 0.02 0.02 0.02
0.03 0.04 0.05 0.06 0.06 0.06 0.07 0.08 0.09 0.06 0.04 0.03 0.02 0.02 0.03 0.04 0.04 0.04 0.03 0.02 0.02 0.02 0.02 0.02 0.02 0.02 0.02 0.01 0.01 0.01 0.02 0.02 0.03 0.03 0.03 0.03 0.03 0.02 0.02 0.02 0.02 0.01 0.02
0.02 0.03 0.04 0.05 0.06 0.07 0.07 0.08 0.08 0.07 0.04 0.02 0.02 0.02 0.02 0.03 0.04 0.04 0.03 0.02 0.02 0.02 0.02 0.02 0.02 0.02 0.02 0.02 0.02 0.02 0.01 0.02 0.02 0.03 0.03 0.02 0.02 0.02 0.02 0.01 0.01 0.01 0.01
0.01 0.02 0.03 0.04 0.05 0.06 0.07 0.08 0.09 0.07 0.05 0.03 0.02 0.02 0.03 0.04 0.04 0.05 0.04 0.03 0.03 0.03 0.02 0.02 0.02 0.02 0.02 0.02 0.02 0.02 0.02 0.02 0.03 0.03 0.03 0.02 0.02 0.02 0.01 0.01 0.01 0.01 0.01
MSLP
1008.12 1007.54 1006.93 1006.32 1005.73 1005.18 1004.66 1004.17 1003.68 1003.18 1002.66 1002.13 1001.62 1001.17 1000.84 1000.67 1000.73 1001.02 1001.55 1002.30 1003.23 1004.29 1005.43 1006.60 1007.75 1008.86 1009.92 1010.93 1011.88 1012.79 1013.67 1014.51 1015.31 1016.05 1016.72 1017.30 1017.79 1018.17 1018.46 1018.65 1018.78 1018.87 1018.94
1008.81 1008.20 1007.53 1006.81 1006.08 1005.39 1004.74 1004.14 1003.58 1003.05 1002.51 1001.98 1001.47 1001.00 1000.62 1000.39 1000.34 1000.52 1000.94 1001.59 1002.45 1003.47 1004.59 1005.77 1006.96 1008.12 1009.22 1010.28 1011.27 1012.23 1013.14 1014.02 1014.87 1015.67 1016.41 1017.08 1017.65 1018.13 1018.49 1018.77 1018.96 1019.09 1019.18
1009.42 1008.82 1008.09 1007.28 1006.43 1005.60 1004.81 1004.10 1003.46 1002.87 1002.32 1001.80 1001.29 1000.83 1000.44 1000.16 1000.05 1000.14 1000.46 1001.01 1001.78 1002.73 1003.81 1004.96 1006.15 1007.32 1008.45 1009.53 1010.56 1011.54 1012.49 1013.42 1014.31 1015.17 1015.97 1016.71 1017.36 1017.92 1018.37 1018.72 1018.98 1019.16 1019.30
1009.88 1009.30 1008.56 1007.69 1006.76 1005.80 1004.90 1004.07 1003.34 1002.70 1002.13 1001.61 1001.13 1000.69 1000.30 1000.02 999.87 999.90 1000.14 1000.59 1001.27 1002.13 1003.13 1004.24 1005.39 1006.55 1007.68 1008.78 1009.83 1010.85 1011.83 1012.79 1013.72 1014.62 1015.47 1016.26 1016.98 1017.59 1018.11 1018.52 1018.84 1019.09 1019.27
1010.14 1009.62 1008.90 1008.03 1007.04 1006.02 1005.02 1004.10 1003.29 1002.59 1001.99 1001.46 1001.00 1000.58 1000.22 999.94 999.78 999.78 999.96 1000.34 1000.93 1001.71 1002.64 1003.68 1004.78 1005.91 1007.03 1008.13 1009.20 1010.24 1011.25 1012.24 1013.20 1014.13 1015.01 1015.82 1016.56 1017.21 1017.76 1018.22 1018.59 1018.89 1019.12
1010.17 1009.73 1009.09 1008.25 1007.27 1006.22 1005.17 1004.18 1003.31 1002.55 1001.91 1001.37 1000.90 1000.50 1000.16 999.91 999.76 999.75 999.91 1000.25 1000.78 1001.49 1002.35 1003.32 1004.37 1005.45 1006.55 1007.65 1008.73 1009.79 1010.82 1011.83 1012.81 1013.75 1014.63 1015.45 1016.18 1016.83 1017.39 1017.86 1018.27 1018.61 1018.90
1009.99 1009.65 1009.10 1008.34 1007.42 1006.39 1005.33 1004.31 1003.38 1002.56 1001.87 1001.29 1000.81 1000.41 1000.10 999.88 999.76 999.78 999.95 1000.28 1000.79 1001.46 1002.26 1003.18 1004.18 1005.23 1006.30 1007.38 1008.46 1009.53 1010.58 1011.60 1012.58 1013.51 1014.38 1015.17 1015.88 1016.50 1017.05 1017.52 1017.94 1018.31 1018.65
1009.63 1009.38 1008.95 1008.30 1007.47 1006.50 1005.46 1004.42 1003.45 1002.58 1001.82 1001.19 1000.68 1000.27 999.97 999.78 999.72 999.79 1000.01 1000.38 1000.91 1001.57 1002.36 1003.25 1004.21 1005.22 1006.27 1007.33 1008.39 1009.45 1010.50 1011.52 1012.50 1013.41 1014.25 1015.01 1015.67 1016.26 1016.77 1017.23 1017.66 1018.06 1018.44
1009.15 1008.99 1008.66 1008.13 1007.39 1006.50 1005.50 1004.47 1003.47 1002.54 1001.72 1001.02 1000.45 1000.03 999.74 999.59 999.59 999.74 1000.04 1000.49 1001.07 1001.78 1002.58 1003.47 1004.40 1005.38 1006.39 1007.42 1008.47 1009.51 1010.54 1011.55 1012.51 1013.40 1014.21 1014.93 1015.55 1016.10 1016.58 1017.03 1017.45 1017.88 1018.30
1008.64 1008.52 1008.27 1007.83 1007.19 1006.37 1005.42 1004.39 1003.36 1002.38 1001.49 1000.72 1000.10 999.64 999.35 999.25 999.33 999.58 999.99 1000.55 1001.23 1002.01 1002.86 1003.76 1004.69 1005.64 1006.61 1007.60 1008.61 1009.62 1010.63 1011.61 1012.55 1013.42 1014.21 1014.90 1015.50 1016.02 1016.48 1016.92 1017.35 1017.79 1018.25
1008.15 1008.04 1007.81 1007.42 1006.83 1006.06 1005.15 1004.13 1003.08 1002.04 1001.09 1000.25 999.58 999.10 998.82 998.77 998.94 999.30 999.85 1000.53 1001.33 1002.21 1003.12 1004.05 1004.98 1005.92 1006.85 1007.80 1008.76 1009.73 1010.70 1011.66 1012.58 1013.44 1014.21 1014.89 1015.48 1016.00 1016.46 1016.90 1017.35 1017.81 1018.31
1007.74 1007.57 1007.31 1006.90 1006.32 1005.57 1004.66 1003.64 1002.57 1001.50 1000.50 999.62 998.92 998.43 998.17 998.18 998.44 998.92 999.60 1000.43 1001.36 1002.34 1003.33 1004.30 1005.24 1006.16 1007.06 1007.95 1008.87 1009.79 1010.73 1011.67 1012.57 1013.43 1014.20 1014.90 1015.50 1016.03 1016.51 1016.97 1017.44 1017.93 1018.46
1007.42 1007.13 1006.77 1006.28 1005.65 1004.86 1003.94 1002.91 1001.83 1000.75 999.73 998.84 998.13 997.66 997.45 997.52 997.88 998.49 999.30 1000.26 1001.31 1002.39 1003.45 1004.47 1005.43 1006.33 1007.20 1008.06 1008.93 1009.82 1010.73 1011.65 1012.55 1013.42 1014.21 1014.93 1015.57 1016.13 1016.65 1017.14 1017.63 1018.15 1018.69
1007.15 1006.69 1006.16 1005.53 1004.79 1003.94 1002.98 1001.94 1000.86 999.79 998.79 997.93 997.26 996.84 996.70 996.86 997.31 998.04 998.97 1000.05 1001.21 1002.38 1003.51 1004.57 1005.55 1006.45 1007.30 1008.14 1008.98 1009.84 1010.74 1011.65 1012.57 1013.45 1014.28 1015.04 1015.72 1016.32 1016.87 1017.40 1017.92 1018.46 1019.01
1006.90 1006.20 1005.46 1004.64 1003.75 1002.80 1001.78 1000.73 999.67 998.66 997.72 996.93 996.35 996.01 995.96 996.22 996.79 997.61 998.65 999.83 1001.08 1002.32 1003.51 1004.62 1005.62 1006.54 1007.39 1008.22 1009.05 1009.92 1010.82 1011.74 1012.68 1013.59 1014.46 1015.26 1015.98 1016.63 1017.22 1017.77 1018.32 1018.86 1019.41
1006.59 1005.64 1004.64 1003.61 1002.55 1001.48 1000.40 999.35 998.33 997.39 996.56 995.89 995.43 995.21 995.29 995.66 996.33 997.25 998.37 999.63 1000.94 1002.25 1003.49 1004.64 1005.67 1006.62 1007.50 1008.35 1009.21 1010.09 1011.02 1011.97 1012.94 1013.89 1014.79 1015.63 1016.39 1017.07 1017.69 1018.26 1018.81 1019.36 1019.90
1006.21 1005.00 1003.74 1002.47 1001.23 1000.04 998.91 997.86 996.91 996.07 995.37 994.85 994.54 994.48 994.69 995.19 995.96 996.97 998.17 999.48 1000.84 1002.19 1003.48 1004.66 1005.74 1006.74 1007.67 1008.57 1009.48 1010.41 1011.37 1012.37 1013.37 1014.36 1015.29 1016.16 1016.94 1017.65 1018.28 1018.86 1019.41 1019.93 1020.45
1005.76 1004.30 1002.80 1001.32 999.91 998.60 997.42 996.39 995.50 994.78 994.23 993.88 993.74 993.85 994.21 994.83 995.71 996.79 998.04 999.40 1000.79 1002.17 1003.49 1004.72 1005.85 1006.91 1007.91 1008.88 1009.86 1010.86 1011.89 1012.93 1013.97 1014.99 1015.95 1016.83 1017.62 1018.33 1018.96 1019.54 1020.07 1020.57 1021.06
1005.30 1003.63 1001.93 1000.27 998.72 997.32 996.10 995.08 994.27 993.66 993.25 993.06 993.10 993.37 993.87 994.62 995.58 996.73 998.02 999.40 1000.81 1002.21 1003.55 1004.82 1006.01 1007.14 1008.22 1009.28 1010.35 1011.43 1012.52 1013.62 1014.70 1015.74 1016.71 1017.60 1018.39 1019.09 1019.70 1020.25 1020.76 1021.23 1021.68
1004.91 1003.09 1001.25 999.46 997.81 996.34 995.09 994.09 993.33 992.82 992.54 992.50 992.68 993.09 993.73 994.58 995.62 996.82 998.14 999.53 1000.94 1002.34 1003.70 1005.00 1006.24 1007.44 1008.60 1009.75 1010.91 1012.07 1013.23 1014.38 1015.50 1016.55 1017.53 1018.40 1019.18 1019.86 1020.45 1020.97 1021.45 1021.89 1022.30
1004.67 1002.79 1000.87 999.02 997.31 995.80 994.54 993.55 992.83 992.39 992.20 992.27 992.57 993.10 993.84 994.77 995.87 997.10 998.43 999.81 1001.21 1002.60 1003.96 1005.27 1006.55 1007.80 1009.04 1010.27 1011.50 1012.74 1013.97 1015.16 1016.30 1017.37 1018.33 1019.20 1019.95 1020.60 1021.17 1021.66 1022.10 1022.51 1022.88
1004.65 1002.78 1000.87 999.01 997.30 995.78 994.52 993.53 992.84 992.44 992.32 992.45 992.84 993.44 994.25 995.24 996.37 997.62 998.93 1000.29 1001.66 1003.02 1004.36 1005.68 1006.97 1008.26 1009.54 1010.83 1012.13 1013.42 1014.69 1015.92 1017.08 1018.15 1019.11 1019.95 1020.68 1021.30 1021.84 1022.31 1022.72 1023.09 1023.42
1004.86 1003.08 1001.25 999.46 997.79 996.30 995.05 994.08 993.40 993.01 992.91 993.09 993.51 994.16 995.01 996.03 997.17 998.40 999.69 1001.01 1002.33 1003.64 1004.94 1006.23 1007.52 1008.81 1010.12 1011.45 1012.78 1014.11 1015.42 1016.66 1017.83 1018.89 1019.84 1020.66 1021.37 1021.97 1022.48 1022.92 1023.31 1023.65 1023.95
1005.27 1003.65 1001.97 1000.30 998.72 997.30 996.09 995.13 994.45 994.07 993.97 994.15 994.59 995.26 996.12 997.14 998.27 999.48 1000.73 1001.99 1003.25 1004.49 1005.74 1006.98 1008.23 1009.51 1010.81 1012.14 1013.49 1014.84 1016.15 1017.40 1018.56 1019.61 1020.54 1021.34 1022.02 1022.60 1023.09 1023.51 1023.88 1024.20 1024.47
1005.82 1004.41 1002.92 1001.42 999.97 998.65 997.50 996.57 995.91 995.53 995.43 995.61 996.04 996.71 997.56 998.56 999.67 1000.83 1002.03 1003.22 1004.41 1005.58 1006.75 1007.93 1009.13 1010.37 1011.64 1012.96 1014.29 1015.63 1016.93 1018.17 1019.31 1020.34 1021.24 1022.02 1022.67 1023.23 1023.70 1024.10 1024.45 1024.75 1024.99
1006.43 1005.26 1003.99 1002.69 1001.41 1000.21 999.15 998.28 997.65 997.28 997.18 997.35 997.78 998.43 999.26 1000.24 1001.31 1002.43 1003.57 1004.69 1005.80 1006.90 1007.99 1009.09 1010.23 1011.41 1012.64 1013.91 1015.22 1016.52 1017.79 1019.00 1020.11 1021.10 1021.97 1022.71 1023.34 1023.86 1024.30 1024.68 1025.01 1025.30 1025.52
Thickness
5606 5610 5614 5620 5622 5624 5628 5631 5633 5635 5636 5637 5638 5639 5638 5639 5640 5640 5640 5640 5638 5637 5637 5635 5634 5632 5630 5628 5626 5623 5619 5616 5615 5612 5609 5609 5609 5609 5608 5608 5606 5605 5603
5595 5599 5604 5608 5612 5615 5618 5622 5624 5627 5628 5630 5631 5631 5631 5631 5631 5631 5632 5631 5630 5628 5628 5627 5625 5623 5621 5619 5617 5614 5610 5607 5605 5603 5599 5597 5598 5599 5600 5598 5597 5596 5595
5587 5591 5595 5598 5601 5605 5609 5612 5614 5617 5619 5621 5621 5621 5621 5621 5621 5622 5622 5623 5621 5619 5618 5617 5616 5614 5612 5610 5608 5606 5603 5599 5596 5594 5591 5588 5587 5586 5589 5589 5588 5587 5585
5580 5583 5586 5588 5591 5595 5598 5601 5604 5607 5609 5611 5612 5613 5614 5614 5614 5614 5613 5613 5612 5611 5609 5607 5605 5604 5602 5600 5599 5597 5594 5591 5587 5585 5583 5581 5579 5575 5576 5578 5578 5577 5576
5571 5575 5577 5579 5582 5584 5587 5590 5593 5596 5599 5601 5603 5603 5604 5605 5605 5604 5603 5603 5602 5601 5599 5598 5596 5594 5592 5591 5589 5586 5584 5582 5579 5576 5573 5571 5569 5567 5566 5566 5567 5566 5566
5562 5565 5568 5570 5572 5574 5576 5579 5583 5586 5588 5591 5592 5594 5594 5595 5594 5594 5592 5592 5591 5591 5589 5588 5587 5584 5582 5580 5578 5577 5574 5572 5570 5567 5565 5563 5561 5559 5557 5555 5555 5555 5556
5553 5556 5558 5560 5562 5564 5567 5570 5573 5575 5578 5580 5582 5583 5584 5585 5585 5585 5583 5582 5581 5580 5579 5579 5578 5575 5573 5571 5569 5568 5565 5562 5560 5558 5556 5554 5553 5551 5549 5547 5545 5545 5545
5545 5549 5551 5552 5553 5555 5558 5560 5563 5565 5567 5569 5571 5572 5573 5574 5574 5574 5573 5572 5571 5571 5570 5569 5569 5567 5565 5563 5561 5559 5556 5553 5551 5549 5546 5544 5543 5542 5540 5538 5535 5534 5535
5536 5539 5541 5543 5544 5546 5548 5550 5553 5555 5557 5559 5560 5562 5562 5563 5563 5562 5562 5561 5561 5561 5560 5560 5559 5557 5556 5553 5551 5549 5547 5545 5542 5540 5538 5535 5533 5532 5530 5529 5526 5523 5523
5528 5530 5531 5533 5535 5537 5539 5541 5543 5546 5547 5549 5551 5552 5552 5553 5552 5552 5551 5551 5551 5551 5550 5550 5549 5548 5546 5544 5541 5539 5537 5535 5533 5531 5529 5526 5524 5522 5520 5518 5517 5514 5512
5520 5521 5522 5523 5525 5526 5528 5530 5533 5535 5537 5539 5540 5541 5541 5542 5541 5541 5540 5540 5540 5540 5540 5540 5539 5538 5536 5534 5532 5530 5528 5526 5523 5521 5519 5517 5515 5513 5510 5508 5507 5504 5502
5513 5513 5513 5514 5514 5516 5518 5520 5523 5525 5527 5528 5529 5530 5530 5530 5530 5531 5530 5530 5530 5530 5530 5529 5529 5528 5526 5524 5522 5520 5518 5516 5513 5511 5509 5507 5506 5504 5501 5498 5496 5495 5493
5504 5504 5504 5504 5504 5506 5508 5510 5513 5515 5517 5518 5518 5519 5520 5519 5520 5520 5520 5520 5520 5519 5518 5519 5518 5518 5516 5514 5512 5511 5509 5507 5504 5502 5500 5498 5496 5493 5491 5489 5487 5486 5484
5495 5494 5494 5494 5495 5496 5498 5499 5501 5504 5506 5507 5508 5509 5509 5509 5510 5510 5509 5510 5509 5509 5508 5508 5508 5507 5506 5504 5503 5501 5499 5497 5495 5493 5491 5488 5487 5484 5482 5480 5478 5476 5474
5485 5485 5485 5485 5485 5487 5488 5489 5491 5493 5495 5496 5497 5499 5499 5500 5500 5500 5499 5499 5499 5498 5497 5497 5497 5497 5495 5494 5493 5491 5490 5487 5485 5483 5481 5479 5477 5475 5473 5471 5469 5466 5464
5475 5475 5476 5477 5477 5477 5478 5480 5481 5483 5484 5486 5487 5489 5489 5489 5489 5489 5488 5489 5488 5487 5486 5486 5487 5486 5485 5485 5484 5482 5479 5477 5475 5473 5471 5469 5467 5466 5464 5462 5460 5458 5455
5466 5466 5466 5466 5467 5467 5469 5470 5471 5472 5473 5474 5476 5478 5479 5478 5478 5477 5477 5478 5477 5476 5476 5475 5476 5476 5475 5475 5474 5472 5469 5467 5465 5463 5461 5460 5458 5456 5454 5452 5450 5448 5446
5456 5456 5456 5456 5457 5457 5459 5460 5460 5461 5462 5464 5466 5467 5467 5467 5466 5466 5466 5466 5466 5465 5465 5465 5465 5465 5465 5464 5463 5461 5459 5457 5455 5453 5451 5450 5448 5446 5445 5443 5441 5438 5435
5448 5447 5447 5447 5448 5448 5449 5449 5450 5451 5452 5454 5455 5455 5455 5455 5456 5456 5455 5455 5455 5455 5454 5455 5454 5454 5453 5453 5452 5450 5448 5446 5445 5443 5442 5440 5439 5438 5437 5434 5431 5429 5426
5439 5439 5438 5438 5438 5439 5439 5439 5440 5441 5442 5443 5444 5444 5444 5445 5446 5446 5445 5444 5444 5444 5444 5444 5444 5443 5442 5442 5442 5440 5438 5437 5436 5434 5433 5431 5430 5429 5428 5424 5421 5418 5416
5430 5430 5429 5428 5429 5429 5429 5429 5430 5431 5432 5432 5433 5433 5433 5434 5435 5435 5434 5434 5434 5433 5433 5433 5433 5432 5432 5431 5430 5430 5429 5427 5425 5424 5423 5422 5421 5420 5418 5414 5411 5409 5406
5420 5420 5419 5418 5419 5419 5420 5419 5420 5421 5421 5421 5422 5422 5423 5423 5424 5425 5424 5424 5424 5423 5423 5422 5421 5421 5420 5420 5419 5419 5419 5418 5415 5414 5412 5411 5410 5409 5407 5404 5401 5399 5395
5409 5409 5408 5408 5408 5409 5410 5410 5410 5411 5411 5411 5411 5411 5412 5413 5414 5415 5414 5414 5414 5414 5413 5412 5411 5410 5410 5409 5409 5409 5408 5407 5405 5404 5402 5401 5399 5397 5395 5392 5390 5387 5384
5400 5399 5398 5397 5397 5398 5399 5400 5401 5401 5402 5402 5402 5402 5403 5403 5403 5404 5406 5406 5406 5406 5405 5404 5402 5400 5399 5398 5398 5397 5397 5396 5395 5393 5391 5389 5387 5385 5383 5381 5378 5375 5373
5390 5389 5389 5388 5388 5388 5388 5389 5390 5391 5392 5393 5393 5393 5393 5394 5394 5395 5395 5396 5398 5398 5397 5396 5393 5391 5390 5390 5389 5388 5387 5386 5385 5382 5379 5377 5375 5373 5371 5369 5367 5365 5363
5381 5380 5379 5379 5379 5378 5379 5379 5380 5381 5383 5384 5383 5383 5384 5385 5385 5386 5386 5386 5387 5388 5388 5387 5385 5383 5382 5381 5380 5379 5378 5377 5375 5372 5369 5366 5364 5362 5360 5358 5357 5355 5354